Temp
19 18 19 18 19 18 18 18 19 19 18 17 17 18 19 19 19 18 18 18 17 17 17 17 17 17 16 16 16 16 16 16 16
18 18 18 18 19 18 18 18 18 18 18 17 17 19 19 19 19 19 18 17 17 17 17 16 17 16 16 16 16 16 16 16 16
19 19 18 18 18 18 18 18 18 18 17 16 18 18 19 20 20 20 18 17 17 17 17 17 17 16 16 16 16 15 16 15 15
18 19 18 18 18 18 18 17 17 17 17 17 17 18 19 20 20 20 18 17 17 17 17 16 16 16 16 16 16 15 15 15 15
18 18 18 18 18 18 17 17 17 17 17 17 17 18 19 19 20 19 18 17 17 17 16 16 16 16 16 16 15 15 15 15 14
18 18 17 17 17 17 17 16 17 17 17 17 18 18 18 20 18 18 18 17 17 16 16 16 16 15 15 15 15 15 14 14 14
17 17 17 17 17 16 16 16 17 16 16 16 17 17 19 18 18 17 17 16 16 16 16 15 15 15 15 15 14 14 14 14 15
17 16 17 16 16 16 15 16 16 17 18 17 16 18 19 17 17 16 17 16 16 16 16 15 15 15 15 14 14 14 14 15 14
16 16 16 16 16 16 16 16 17 18 19 18 19 19 19 18 17 17 16 16 15 16 15 15 15 15 15 16 14 14 15 14 13
16 16 15 16 17 16 15 16 18 19 19 19 19 18 18 18 18 17 17 17 16 15 15 15 15 15 14 15 15 14 14 13 13
16 16 16 15 16 15 15 17 18 18 19 19 19 18 18 18 17 17 17 17 17 16 15 15 15 15 15 16 15 15 14 13 12
17 16 16 16 16 16 16 17 18 18 19 18 18 18 18 17 17 17 17 16 16 16 16 15 15 15 15 14 14 14 13 12 12
16 16 16 16 16 16 17 17 17 18 18 17 16 17 16 16 17 17 17 17 16 16 15 15 15 15 15 14 14 13 14 12 12
16 16 16 16 15 16 17 17 16 17 17 17 16 16 16 16 16 16 17 17 16 16 15 15 15 15 14 14 14 13 13 13 12
15 15 16 16 15 15 16 16 16 16 16 17 16 16 15 15 15 16 16 16 16 16 15 15 15 15 14 14 14 14 13 13 12
14 14 14 15 15 15 16 16 16 15 16 16 15 14 14 14 15 15 16 16 16 15 16 15 15 15 15 14 14 14 13 13 12
13 13 14 14 15 15 15 16 15 15 15 15 15 14 13 13 14 14 15 15 16 16 16 16 16 15 14 15 14 14 14 13 13
10 12 12 13 14 14 14 15 15 15 13 14 16 15 15 15 14 14 14 14 14 14 15 15 15 15 15 15 15 14 14 14 13
7 8 9 10 11 13 12 13 14 14 13 12 13 13 13 16 15 14 14 14 14 14 14 14 14 15 14 14 15 15 14 14 13
4 5 7 7 8 8 9 9 12 12 13 12 11 11 11 11 11 14 14 14 14 14 14 14 14 14 14 14 14 14 14 14 14
Height
814 815 816 817 818 819 820 822 824 826 828 829 830 832 833 835 836 837 839 841 842 844 844 845 846 847 848 849 850 850 851 852 854
814 815 816 818 819 820 822 823 825 827 829 830 831 833 834 836 838 840 841 842 843 845 847 847 848 849 850 851 852 853 854 856 857
813 814 817 819 820 820 822 824 826 827 829 830 832 834 835 837 839 840 841 843 845 847 848 849 850 849 850 852 854 855 857 858 859
813 813 815 818 819 821 823 825 826 828 829 830 832 834 836 837 839 841 842 844 846 848 849 850 852 852 853 854 855 857 859 860 861
811 813 814 816 819 821 824 826 827 829 830 831 832 834 836 837 838 841 841 845 846 848 849 850 852 854 855 857 857 858 860 861 863
807 809 812 816 818 822 824 828 829 830 830 831 831 833 836 837 838 840 841 844 846 848 849 851 853 855 856 857 858 859 861 863 864
805 807 810 814 817 821 824 827 830 831 831 830 831 832 834 836 838 839 841 843 845 847 849 851 853 855 857 858 859 861 862 864 865
804 806 809 811 816 819 820 825 828 830 830 830 830 831 833 835 837 839 841 843 845 847 849 851 852 855 857 859 860 861 863 864 867
802 805 808 810 812 817 822 824 825 828 828 827 828 829 832 835 836 837 840 841 844 846 847 849 852 854 855 858 861 862 863 866 867
800 802 805 808 810 812 813 818 822 824 824 825 826 829 832 834 835 836 838 841 843 845 847 848 850 854 855 856 859 861 863 866 868
797 800 802 805 807 810 813 815 817 818 820 822 824 827 829 831 834 835 837 840 841 844 846 847 849 852 854 853 857 860 863 864 866
794 796 799 801 804 807 810 812 812 815 818 819 821 824 826 829 830 833 835 837 839 842 844 846 848 850 852 853 854 857 861 863 865
790 792 795 797 800 802 805 806 809 811 813 816 818 821 824 826 827 830 832 836 837 839 842 844 845 848 850 851 852 855 856 861 863
788 788 790 793 796 798 800 803 805 807 809 813 815 817 821 824 825 827 830 832 833 836 839 841 843 845 847 849 851 852 854 854 859
786 786 787 789 789 794 797 797 801 803 805 808 810 813 816 819 822 824 826 829 830 831 834 838 840 841 843 846 848 850 852 853 854
782 783 784 784 785 784 790 793 793 798 801 804 808 811 814 815 817 820 821 825 826 828 828 832 835 837 840 842 844 846 848 850 853
780 780 781 781 782 785 785 787 789 793 796 800 805 807 811 812 813 815 815 818 820 823 825 825 828 829 833 836 839 842 844 846 849
778 777 776 776 774 779 778 779 782 787 792 794 797 800 799 804 806 809 811 813 815 818 820 822 823 825 826 829 832 836 839 842 844
781 778 776 774 776 774 774 775 780 782 786 790 791 794 796 796 799 802 805 808 810 813 815 817 819 821 823 824 825 829 832 836 838
787 783 782 778 776 773 774 774 776 779 783 786 790 792 794 796 799 798 800 803 805 808 809 812 814 816 819 820 821 822 824 827 830
Wind_Speed
10 10 11 12 12 13 16 16 15 14 14 14 16 19 17 10 13 13 14 14 12 11 13 13 15 15 15 16 16 18 20 19 18
13 13 14 14 15 14 16 16 16 15 14 14 17 18 14 10 11 10 12 12 10 11 10 13 13 15 15 16 18 18 19 18 18
14 15 16 18 16 16 16 17 17 15 15 14 17 18 12 11 9 9 8 8 11 10 10 13 14 17 17 17 16 16 16 16 16
15 17 17 22 19 16 15 15 15 15 14 15 16 17 12 7 8 7 6 12 11 12 10 12 15 14 14 13 13 14 15 14 14
17 18 18 22 19 16 15 14 13 13 13 14 15 14 12 7 9 9 12 14 14 12 13 16 17 15 13 12 13 16 15 16 17
16 19 20 21 17 15 14 13 13 12 11 12 14 14 11 8 11 12 12 17 15 14 16 16 15 13 14 11 12 15 17 15 14
16 22 23 18 18 17 13 13 14 14 12 13 14 14 13 12 12 13 16 16 17 16 15 15 17 17 14 8 15 15 14 12 8
19 23 23 20 17 16 16 16 15 16 16 14 13 13 11 7 9 12 16 16 13 15 14 18 19 18 13 12 13 12 12 8 8
22 24 23 23 26 21 19 21 20 19 16 15 18 11 11 9 13 11 8 7 14 15 16 20 19 17 16 13 11 11 7 8 10
21 22 23 28 28 27 29 25 23 21 17 16 15 16 13 11 10 11 8 5 6 14 15 20 19 18 17 14 11 8 9 10 9
21 22 25 27 27 27 25 26 22 20 20 19 17 17 15 13 12 10 10 7 5 11 12 17 18 18 17 13 15 13 12 10 11
22 22 25 30 27 24 24 22 19 20 22 20 18 18 16 16 15 12 9 8 8 9 13 15 18 19 18 17 17 16 13 12 12
24 24 22 27 27 27 24 23 23 22 20 19 19 17 17 17 20 16 13 12 8 10 14 14 17 19 18 19 18 18 15 13 13
22 28 25 23 25 26 26 23 24 23 21 19 21 20 19 19 21 20 18 14 14 13 12 14 15 17 18 18 19 19 18 17 18
19 22 28 26 25 25 26 26 25 25 22 20 20 20 21 21 20 21 20 19 17 17 16 12 14 16 19 19 19 20 19 18 19
18 21 24 27 29 26 32 29 29 25 26 19 11 13 16 21 21 22 24 23 23 21 20 19 15 14 18 20 22 22 22 20 20
16 19 24 27 28 28 29 28 19 14 19 13 14 5 8 15 18 24 25 27 28 27 27 26 24 21 20 21 22 24 23 22 22
2 10 15 23 21 27 30 29 24 18 17 19 9 4 4 9 18 23 22 23 22 24 28 29 28 24 22 21 20 22 25 23 24
19 13 8 4 9 15 10 23 25 21 14 15 20 6 2 2 4 19 24 23 23 24 22 23 26 27 22 21 22 24 23 26 25
25 24 21 21 20 18 13 14 17 16 15 12 7 13 9 4 2 2 7 20 23 24 23 23 23 25 24 24 26 25 26 26 29
Wind_Direction
198 195 182 176 168 160 150 141 145 146 142 142 140 140 129 111 124 122 119 120 114 113 114 116 117 118 112 115 112 120 103 96 97
204 204 191 185 174 168 160 156 155 149 150 151 150 147 132 127 141 133 125 125 122 125 120 128 122 123 125 121 106 102 103 98 106
205 205 200 188 184 181 179 173 167 167 159 156 155 153 141 159 156 147 142 145 137 141 140 133 129 122 120 111 108 103 106 110 108
220 211 207 198 197 192 184 179 178 177 175 175 168 169 162 169 176 177 155 153 156 152 150 156 146 124 120 120 120 112 114 123 111
226 219 211 199 199 197 190 186 185 183 189 191 185 187 180 188 169 174 166 157 159 160 159 136 131 126 125 133 127 128 121 111 109
216 208 199 197 193 193 196 197 192 185 187 185 183 184 187 200 180 171 176 159 164 159 149 147 146 136 134 149 146 126 119 113 106
192 195 182 183 185 187 196 202 198 189 182 182 176 175 192 190 183 176 177 172 169 163 164 158 148 142 142 142 127 126 126 123 141
191 185 188 181 186 199 186 206 208 201 186 187 191 198 181 174 168 163 182 182 178 169 172 165 153 150 152 137 133 134 129 140 153
192 183 189 188 187 186 197 197 204 208 197 183 192 180 176 173 156 152 158 183 189 179 178 172 162 162 159 169 152 146 179 173 166
194 192 197 194 198 192 186 198 205 207 199 195 194 188 185 179 160 154 139 158 193 189 188 174 168 171 166 171 185 173 197 174 173
204 200 199 198 201 195 204 202 203 202 199 199 189 195 196 187 185 166 171 170 185 204 204 192 178 178 181 187 188 204 198 191 180
225 207 202 199 195 201 201 202 201 202 203 197 200 204 196 193 191 182 183 193 205 211 220 211 197 193 189 181 183 195 194 197 192
225 225 212 206 201 198 203 200 195 205 201 195 198 202 198 198 194 193 189 199 195 217 220 222 218 206 195 190 187 186 201 200 202
232 227 225 213 206 198 199 199 195 200 202 202 196 196 197 197 192 190 194 201 198 198 222 218 220 220 217 210 202 199 198 206 200
244 237 231 221 210 204 201 195 195 198 199 199 194 192 194 198 204 206 202 205 212 206 206 212 224 225 221 222 219 209 205 206 200
257 249 241 225 224 208 208 201 194 200 209 196 187 188 210 212 210 218 210 214 211 208 211 210 213 223 229 231 234 226 212 210 210
264 259 256 244 231 222 221 206 191 187 198 179 177 187 209 220 217 217 213 219 221 222 222 221 223 228 232 236 235 233 226 220 213
28 266 255 249 230 233 221 195 184 183 194 199 193 191 213 178 213 216 218 218 217 221 226 225 226 222 234 234 230 230 234 236 227
56 66 91 126 216 215 213 199 200 190 184 200 209 198 129 219 167 205 216 221 220 222 222 226 228 229 223 230 237 231 234 235 236
47 58 62 70 73 76 69 58 177 180 187 189 184 215 218 231 30 164 198 221 223 225 221 224 225 226 223 230 240 241 235 233 236